FW8695 Weather Reports


time (UTC)temp
C
wind
direction
speed
KPH
gust
KPH
rain 1hr
cm
rain 24hr
cm
rain mn
cm
humidity
%
barometer
mb
20260507041021 16 245 0.0 0.0 0.00 0.00 0.00 73 1017.9
20260507040534 16 245 0.0 0.0 0.00 0.00 0.00 72 1017.8
20260507040123 17 245 0.0 0.0 0.00 0.00 0.00 72 1017.8
20260507035520 17 245 0.0 0.0 0.00 0.00 0.00 71 1017.9
20260507035016 17 245 0.0 0.0 0.00 0.00 0.00 71 1017.8
20260507034609 17 245 0.0 0.0 0.00 0.00 0.00 71 1017.7
20260507034018 17 245 0.0 4.8 0.00 0.00 0.00 70 1017.4
20260507033519 17 245 0.0 4.8 0.00 0.00 0.00 70 1017.4
20260507033111 17 245 0.0 3.2 0.00 0.00 0.00 69 1017.4
20260507032520 17 245 0.0 4.8 0.00 0.00 0.00 69 1017.4
20260507032019 18 245 0.0 4.8 0.00 0.00 0.00 69 1017.3
20260507031615 18 245 0.0 6.4 0.00 0.00 0.00 68 1017.2
20260507031017 18 245 0.0 6.4 0.00 0.00 0.00 68 1017.3
20260507030518 18 245 1.6 6.4 0.00 0.00 0.00 68 1017.2
20260507030121 18 245 1.6 8.0 0.00 0.00 0.00 67 1017.1
20260507025516 18 245 1.6 8.0 0.00 0.00 0.00 66 1017.1
20260507025016 19 245 1.6 9.7 0.00 0.00 0.00 65 1017.1
20260507024613 19 245 1.6 9.7 0.00 0.00 0.00 64 1017.0
20260507024018 19 245 0.0 8.0 0.00 0.00 0.00 64 1017.1
20260507023531 20 245 1.6 8.0 0.00 0.00 0.00 63 1016.8
20260507023109 20 245 1.6 8.0 0.00 0.00 0.00 62 1016.7
20260507022513 20 245 1.6 9.7 0.00 0.00 0.00 62 1016.8
20260507022019 20 245 3.2 9.7 0.00 0.00 0.00 61 1016.9
20260507021601 20 244 1.6 11.3 0.00 0.00 0.00 60 1017.0
20260507021014 21 242 1.6 12.9 0.00 0.00 0.00 59 1016.8
20260507020516 21 240 3.2 12.9 0.00 0.00 0.00 60 1016.8
20260507020114 21 245 4.8 16.1 0.00 0.00 0.00 59 1017.0
20260507015514 21 239 4.8 16.1 0.00 0.00 0.00 58 1016.9
20260507015016 21 264 3.2 12.9 0.00 0.00 0.00 58 1016.9
20260507014610 22 263 3.2 14.5 0.00 0.00 0.00 57 1016.8
20260507014024 22 268 4.8 14.5 0.00 0.00 0.00 57 1016.8
20260507013523 22 247 3.2 12.9 0.00 0.00 0.00 56 1016.9
20260507013109 22 244 8.0 14.5 0.00 0.00 0.00 55 1016.8
20260507012522 22 255 6.4 14.5 0.00 0.00 0.00 55 1016.7
20260507012024 22 253 4.8 14.5 0.00 0.00 0.00 54 1016.8
20260507011612 22 263 6.4 17.7 0.00 0.00 0.00 54 1016.6
20260507011020 23 257 4.8 17.7 0.00 0.00 0.00 54 1016.5
20260507010520 23 249 4.8 16.1 0.00 0.00 0.00 53 1016.6
20260507010115 23 257 4.8 17.7 0.00 0.00 0.00 53 1016.6
20260507005518 23 238 4.8 17.7 0.00 0.00 0.00 53 1016.7
20260507005017 23 280 6.4 14.5 0.00 0.00 0.00 53 1016.8
20260507004557 23 205 4.8 14.5 0.00 0.00 0.00 53 1016.8
20260507004018 23 284 3.2 16.1 0.00 0.00 0.00 53 1016.7
20260507003522 23 292 8.0 19.3 0.00 0.00 0.00 52 1016.8
20260507003306 23 223 9.7 19.3 0.00 0.00 0.00 51 1016.7
20260507002518 23 263 8.0 20.9 0.00 0.00 0.00 51 1016.8
20260507002017 23 265 8.0 20.9 0.00 0.00 0.00 51 1016.8
20260507001609 23 244 9.7 17.7 0.00 0.00 0.00 51 1016.9
20260507001020 23 243 9.7 20.9 0.00 0.00 0.00 50 1016.8
20260507000518 23 230 8.0 17.7 0.00 0.00 0.00 51 1016.8
20260507000111 23 241 8.0 17.7 0.00 0.00 0.00 51 1016.8
20260506235518 23 260 8.0 22.5 0.00 0.00 0.00 51 1016.8
20260506235018 23 223 8.0 22.5 0.00 0.00 0.00 51 1016.7
20260506234621 23 271 4.8 20.9 0.00 0.00 0.00 51 1016.7
20260506234021 23 257 9.7 20.9 0.00 0.00 0.00 51 1016.6
20260506233521 24 250 11.3 19.3 0.00 0.00 0.00 51 1016.6
20260506233110 24 232 8.0 19.3 0.00 0.00 0.00 51 1016.6
20260506232520 24 226 8.0 19.3 0.00 0.00 0.00 52 1016.6
20260506232019 24 244 9.7 25.7 0.00 0.00 0.00 52 1016.7
20260506231617 24 245 9.7 25.7 0.00 0.00 0.00 52 1016.7
20260506231020 24 251 9.7 24.1 0.00 0.00 0.00 51 1016.8
20260506230516 24 245 8.0 27.4 0.00 0.00 0.00 50 1016.8
20260506230307 24 229 9.7 27.4 0.00 0.00 0.00 50 1016.9
20260506225518 24 195 9.7 24.1 0.00 0.00 0.00 51 1016.9
20260506225019 24 270 9.7 22.5 0.00 0.00 0.00 50 1017.0
20260506224610 24 247 8.0 27.4 0.00 0.00 0.00 50 1017.1
20260506224032 24 245 11.3 24.1 0.00 0.00 0.00 49 1017.2
20260506223515 25 253 8.0 25.7 0.00 0.00 0.00 49 1017.3
20260506223044 25 239 11.3 25.7 0.00 0.00 0.00 49 1017.4
20260506222516 25 256 9.7 20.9 0.00 0.00 0.00 49 1017.5
20260506222016 25 232 8.0 19.3 0.00 0.00 0.00 49 1017.5
20260506221547 25 277 8.0 19.3 0.00 0.00 0.00 49 1017.7
20260506221016 25 236 8.0 20.9 0.00 0.00 0.00 50 1017.6
20260506220516 25 215 6.4 20.9 0.00 0.00 0.00 50 1017.9
20260506220049 25 239 4.8 17.7 0.00 0.00 0.00 50 1017.8
20260506215515 25 253 6.4 20.9 0.00 0.00 0.00 51 1017.8
20260506215015 25 204 8.0 20.9 0.00 0.00 0.00 51 1017.9
20260506214540 25 232 4.8 22.5 0.00 0.00 0.00 51 1017.9
20260506214016 25 251 8.0 22.5 0.00 0.00 0.00 51 1017.9
20260506213516 25 244 8.0 22.5 0.00 0.00 0.00 50 1018.0
20260506213037 25 245 8.0 22.5 0.00 0.00 0.00 51 1017.8
20260506212513 25 230 6.4 17.7 0.00 0.00 0.00 52 1017.9
20260506212014 25 236 6.4 24.1 0.00 0.00 0.00 53 1018.2
20260506211551 24 225 8.0 24.1 0.00 0.00 0.00 52 1018.2
20260506211017 24 238 6.4 19.3 0.00 0.00 0.00 53 1018.2
20260506210514 24 234 8.0 22.5 0.00 0.00 0.00 53 1018.2
20260506210044 24 240 8.0 22.5 0.00 0.00 0.00 53 1018.4
20260506205517 24 234 3.2 19.3 0.00 0.00 0.00 54 1018.2
20260506205014 23 238 8.0 17.7 0.00 0.00 0.00 54 1018.3
20260506204544 23 210 4.8 19.3 0.00 0.00 0.00 54 1018.2
20260506204022 23 234 9.7 19.3 0.00 0.00 0.00 54 1018.2
20260506203535 23 230 4.8 24.1 0.00 0.00 0.00 55 1018.4
20260506203105 23 251 6.4 24.1 0.00 0.00 0.00 54 1018.5
20260506202517 23 240 8.0 19.3 0.00 0.00 0.00 55 1018.5
20260506202014 23 221 6.4 22.5 0.00 0.00 0.00 55 1018.5
20260506201559 23 251 9.7 22.5 0.00 0.00 0.00 55 1018.5
20260506201014 23 242 8.0 22.5 0.00 0.00 0.00 55 1018.7
20260506200516 24 253 9.7 22.5 0.00 0.00 0.00 53 1018.7
20260506200057 24 238 8.0 22.5 0.00 0.00 0.00 54 1018.7
20260506195516 24 240 4.8 24.1 0.00 0.00 0.00 54 1018.6
20260506195015 24 196 9.7 24.1 0.00 0.00 0.00 53 1018.7
20260506194609 24 251 8.0 19.3 0.00 0.00 0.00 54 1018.6
20260506194014 24 234 8.0 24.1 0.00 0.00 0.00 53 1018.7
20260506193516 24 249 8.0 24.1 0.00 0.00 0.00 53 1018.7
20260506193057 24 244 4.8 17.7 0.00 0.00 0.00 54 1018.7
20260506192518 24 234 6.4 25.7 0.00 0.00 0.00 54 1018.7
20260506192016 25 238 9.7 25.7 0.00 0.00 0.00 53 1018.9
20260506191604 25 230 8.0 19.3 0.00 0.00 0.00 52 1018.8
20260506191017 25 252 8.0 19.3 0.00 0.00 0.00 51 1018.9
20260506190517 24 231 40.2 12.9 0.00 0.00 0.00 50 1018.8
20260506190053 24 218 4.8 14.5 0.00 0.00 0.00 51 1018.8
20260506185521 24 232 3.2 17.7 0.00 0.00 0.00 49 1018.9
20260506185016 24 188 6.4 17.7 0.00 0.00 0.00 51 1019.0
20260506184557 24 220 1.6 17.7 0.00 0.00 0.00 50 1019.2
20260506184019 23 250 1.6 17.7 0.00 0.00 0.00 51 1019.2
20260506183520 23 233 6.4 16.1 0.00 0.00 0.00 50 1019.2
20260506183056 23 230 4.8 16.1 0.00 0.00 0.00 50 1019.2
20260506182517 23 242 3.2 16.1 0.00 0.00 0.00 51 1019.3
20260506182016 23 138 3.2 16.1 0.00 0.00 0.00 51 1019.3
20260506181558 23 254 4.8 16.1 0.00 0.00 0.00 51 1019.3
20260506181019 23 240 4.8 16.1 0.00 0.00 0.00 51 1019.3
20260506180518 23 246 4.8 20.9 0.00 0.00 0.00 52 1019.4
20260506180051 23 184 6.4 20.9 0.00 0.00 0.00 51 1019.3
20260506175516 22 236 1.6 14.5 0.00 0.00 0.00 52 1019.4
20260506175016 22 249 4.8 16.1 0.00 0.00 0.00 52 1019.4
20260506174606 22 226 4.8 16.1 0.00 0.00 0.00 54 1019.5
20260506174023 22 214 3.2 14.5 0.00 0.00 0.00 53 1019.5
20260506173519 22 137 3.2 11.3 0.00 0.00 0.00 55 1019.4
20260506173127 22 245 3.2 11.3 0.00 0.00 0.00 56 1019.5
20260506172519 22 245 4.8 11.3 0.00 0.00 0.00 56 1019.5
20260506172024 22 211 1.6 9.7 0.00 0.00 0.00 57 1019.6
20260506171600 21 210 1.6 6.4 0.00 0.00 0.00 58 1019.5
20260506171017 21 210 0.0 8.0 0.00 0.00 0.00 58 1019.5
20260506170520 21 216 1.6 8.0 0.00 0.00 0.00 57 1019.5
20260506170443 21 215 0.0 12.9 0.00 0.00 0.00 59 1019.5
20260506165518 20 217 4.8 12.9 0.00 0.00 0.00 57 1019.6
20260506165020 20 215 1.6 6.4 0.00 0.00 0.00 59 1019.6
20260506164610 20 214 1.6 9.7 0.00 0.00 0.00 60 1019.6
20260506164020 20 213 1.6 9.7 0.00 0.00 0.00 63 1019.6
20260506163535 19 284 1.6 11.3 0.00 0.00 0.00 64 1019.6
20260506163109 19 18 1.6 6.4 0.00 0.00 0.00 65 1019.7
20260506162522 18 18 0.0 3.2 0.00 0.00 0.00 69 1019.7
20260506162015 18 18 0.0 3.2 0.00 0.00 0.00 71 1019.6
20260506161612 17 18 0.0 1.6 0.00 0.00 0.00 75 1019.5
20260506161016 17 18 0.0 3.2 0.00 0.00 0.00 75 1019.6
20260506160515 16 18 0.0 4.8 0.00 0.00 0.00 76 1019.6
20260506160111 16 13 1.6 4.8 0.00 0.00 0.00 77 1019.5
20260506155519 15 13 0.0 6.4 0.00 0.00 0.00 81 1019.6
20260506155017 15 13 1.6 6.4 0.00 0.00 0.00 82 1019.5
20260506154601 14 5 1.6 6.4 0.00 0.00 0.00 88 1019.5
20260506154017 13 27 1.6 6.4 0.00 0.00 0.00 90 1019.5
20260506153516 13 18 1.6 6.4 0.00 0.00 0.00 92 1019.5
20260506153100 12 45 1.6 8.0 0.00 0.00 0.00 93 1019.4
20260506152519 12 76 3.2 9.7 0.00 0.00 0.00 94 1019.4
20260506152016 12 54 3.2 9.7 0.00 0.00 0.00 95 1019.4
20260506151821 12 47 1.6 8.0 0.00 0.00 0.00 95 1019.6
20260506151015 11 47 3.2 8.0 0.00 0.00 0.00 95 1019.7
20260506150516 11 49 1.6 6.4 0.00 0.00 0.00 95 1019.7
20260506150101 10 47 1.6 6.4 0.00 0.00 0.00 95 1019.6
20260506145519 10 47 0.0 4.8 0.00 0.00 0.00 95 1019.5
20260506145017 10 46 0.0 4.8 0.00 0.00 0.00 95 1019.6
20260506144600 10 45 0.0 3.2 0.00 0.00 0.00 94 1019.5
20260506144015 9 45 0.0 6.4 0.00 0.00 0.00 94 1019.5
20260506143519 9 49 1.6 4.8 0.00 0.00 0.00 94 1019.8
20260506143053 8 49 0.0 4.8 0.00 0.00 0.00 94 1019.7
20260506142516 8 49 1.6 4.8 0.00 0.00 0.00 94 1019.6
20260506142013 8 48 1.6 4.8 0.00 0.00 0.00 94 1019.5
20260506141550 8 47 1.6 4.8 0.00 0.00 0.00 93 1019.5
20260506141019 7 47 1.6 4.8 0.00 0.00 0.00 93 1019.4
20260506140514 7 47 0.0 4.8 0.00 0.00 0.00 92 1019.5
20260506135515 6 47 0.0 0.0 0.00 0.00 0.00 90 1019.4
20260506135016 6 47 0.0 0.0 0.00 0.00 0.00 89 1019.3
20260506134545 6 47 0.0 0.0 0.00 0.00 0.00 89 1019.3
20260506134015 6 47 0.0 0.0 0.00 0.00 0.00 89 1019.2
20260506133517 6 47 0.0 0.0 0.00 0.00 0.00 88 1019.4
20260506133056 6 47 0.0 0.0 0.00 0.00 0.00 88 1019.4
20260506132517 6 47 0.0 0.0 0.00 0.00 0.00 88 1019.2
20260506132015 6 47 0.0 0.0 0.00 0.00 0.00 88 1019.1
20260506131546 6 47 0.0 0.0 0.00 0.00 0.00 88 1019.2
20260506131017 6 47 0.0 0.0 0.00 0.00 0.00 88 1019.1
20260506130514 6 47 0.0 0.0 0.00 0.00 0.00 88 1019.0
20260506130133 6 47 0.0 0.0 0.00 0.00 0.00 88 1019.1
20260506125514 6 47 0.0 0.0 0.00 0.00 0.00 89 1019.0
20260506125015 7 47 0.0 0.0 0.00 0.00 0.00 88 1018.9
20260506124542 7 47 0.0 0.0 0.00 0.00 0.00 88 1018.8
20260506124016 7 47 0.0 0.0 0.00 0.00 0.00 88 1018.8
20260506123516 7 47 0.0 0.0 0.00 0.00 0.00 88 1018.9
20260506123053 7 47 0.0 0.0 0.00 0.00 0.00 88 1018.8
20260506122517 7 47 0.0 0.0 0.00 0.00 0.00 88 1018.8
20260506122015 7 47 0.0 0.0 0.00 0.00 0.00 88 1018.8
20260506121556 7 47 0.0 0.0 0.00 0.00 0.00 88 1018.6
20260506121013 7 47 0.0 0.0 0.00 0.00 0.00 88 1018.7
20260506120515 7 47 0.0 0.0 0.00 0.00 0.00 88 1018.7
20260506120057 7 47 0.0 0.0 0.00 0.00 0.00 88 1018.7
20260506115517 7 47 0.0 0.0 0.00 0.00 0.00 88 1018.6
20260506115014 7 47 0.0 0.0 0.00 0.00 0.00 88 1018.5
20260506114551 7 47 0.0 0.0 0.00 0.00 0.00 88 1018.6
20260506114019 7 47 0.0 0.0 0.00 0.00 0.00 88 1018.5
20260506113515 7 47 0.0 0.0 0.00 0.00 0.00 88 1018.6
20260506113052 7 47 0.0 0.0 0.00 0.00 0.00 88 1018.6
20260506112518 7 47 0.0 0.0 0.00 0.00 0.00 88 1018.6
20260506112017 7 47 0.0 0.0 0.00 0.00 0.00 88 1018.6
20260506111552 7 47 0.0 0.0 0.00 0.00 0.00 88 1018.5
20260506111016 7 47 0.0 0.0 0.00 0.00 0.00 88 1018.5
20260506110518 7 47 0.0 0.0 0.00 0.00 0.00 88 1018.5
20260506110051 7 47 0.0 0.0 0.00 0.00 0.00 88 1018.5
20260506105515 7 47 0.0 0.0 0.00 0.00 0.00 88 1018.4
20260506105020 7 47 0.0 0.0 0.00 0.00 0.00 88 1018.3
20260506104559 7 47 0.0 0.0 0.00 0.00 0.00 88 1018.4
20260506104018 7 47 0.0 0.0 0.00 0.00 0.00 88 1018.2
20260506103514 7 47 0.0 0.0 0.00 0.00 0.00 87 1018.3
20260506103054 7 47 0.0 0.0 0.00 0.00 0.00 87 1018.2
20260506102514 7 47 0.0 1.6 0.00 0.00 0.00 87 1018.3
20260506102016 7 47 0.0 1.6 0.00 0.00 0.00 87 1018.3
20260506101541 8 47 0.0 0.0 0.00 0.00 0.00 87 1018.4
20260506101016 8 47 0.0 0.0 0.00 0.00 0.00 87 1018.4
20260506100516 8 47 0.0 0.0 0.00 0.00 0.00 87 1018.4
20260506100106 8 47 0.0 0.0 0.00 0.00 0.00 87 1018.4
20260506095515 8 47 0.0 0.0 0.00 0.00 0.00 87 1018.4
20260506095016 8 47 0.0 0.0 0.00 0.00 0.00 87 1018.3
20260506094552 8 47 0.0 0.0 0.00 0.00 0.00 87 1018.3
20260506094016 8 47 0.0 0.0 0.00 0.00 0.00 87 1018.3
20260506093520 8 47 0.0 0.0 0.00 0.00 0.00 87 1018.5
20260506093048 8 47 0.0 0.0 0.00 0.00 0.00 87 1018.6
20260506092514 8 47 0.0 0.0 0.00 0.00 0.00 87 1018.6
20260506092015 8 47 0.0 0.0 0.00 0.00 0.00 87 1018.6
20260506091806 8 47 0.0 0.0 0.00 0.00 0.00 87 1018.6
20260506091020 8 47 0.0 0.0 0.00 0.00 0.00 87 1018.6
20260506090521 9 47 0.0 0.0 0.00 0.00 0.00 87 1018.6
20260506090332 9 47 0.0 0.0 0.00 0.00 0.00 87 1018.5
20260506085517 9 47 0.0 0.0 0.00 0.00 0.00 87 1018.6
20260506085016 9 47 0.0 0.0 0.00 0.00 0.00 87 1018.6
20260506084556 9 47 0.0 0.0 0.00 0.00 0.00 87 1018.6
20260506084017 9 47 0.0 0.0 0.00 0.00 0.00 87 1018.7
20260506083518 10 47 0.0 0.0 0.00 0.00 0.00 86 1018.7
20260506083055 10 47 0.0 0.0 0.00 0.00 0.00 86 1018.7
20260506082516 10 47 0.0 0.0 0.00 0.00 0.00 87 1018.7
20260506082016 10 47 0.0 0.0 0.00 0.00 0.00 87 1018.7
20260506081609 10 47 0.0 0.0 0.00 0.00 0.00 87 1018.7
20260506081016 10 47 0.0 0.0 0.00 0.00 0.00 87 1018.7
20260506080517 10 47 0.0 0.0 0.00 0.00 0.00 87 1018.6
20260506073522 10 47 0.0 0.0 0.00 0.00 0.00 87 1018.7
20260506073057 10 47 0.0 0.0 0.00 0.00 0.00 87 1018.6
20260506072516 11 47 0.0 0.0 0.00 0.00 0.00 88 1018.5
20260506072018 11 47 0.0 0.0 0.00 0.00 0.00 88 1018.5
20260506071602 11 47 0.0 0.0 0.00 0.00 0.00 88 1018.4
20260506071016 11 47 0.0 0.0 0.00 0.00 0.00 88 1018.6
20260506070518 11 47 0.0 0.0 0.00 0.00 0.00 88 1018.5
20260506062516 10 253 0.0 0.0 0.00 0.00 0.00 85 1018.0
20260506062018 10 253 0.0 0.0 0.00 0.00 0.00 84 1017.8
20260506061609 11 253 0.0 0.0 0.00 0.00 0.00 84 1017.9
20260506061018 11 253 0.0 0.0 0.00 0.00 0.00 83 1017.8
20260506060516 11 253 0.0 0.0 0.00 0.00 0.00 84 1017.7
20260506060106 11 253 0.0 0.0 0.00 0.00 0.00 84 1017.7
20260506051018 12 253 0.0 0.0 0.00 0.00 0.00 83 1017.5
20260506050518 12 253 0.0 0.0 0.00 0.00 0.00 83 1017.4
20260506045016 12 253 0.0 0.0 0.00 0.00 0.00 82 1017.2
20260506044600 12 253 0.0 0.0 0.00 0.00 0.00 82 1017.3
20260506044017 12 253 0.0 0.0 0.00 0.00 0.00 82 1017.2
20260506043519 13 253 0.0 0.0 0.00 0.00 0.00 81 1017.2
20260506043310 13 253 0.0 0.0 0.00 0.00 0.00 81 1017.2
20260506042518 13 253 0.0 0.0 0.00 0.00 0.00 81 1017.0
20260506042021 13 253 0.0 0.0 0.00 0.00 0.00 81 1016.8
20260506041558 13 253 0.0 0.0 0.00 0.00 0.00 81 1017.1